This demonstration page uses our WeatherBlox Daily Observations layout. Learn more.

Left ArrowRight Arrow

41.86663, -103.66717

Hourly Observations for July 3, 2020

Temp ( °F °C ) Dew Point ( °F °C ) Humidity (%) Winds ( mph kmh ) Pressure ( in mb ) Visibility ( mi km ) Precip ( " mm )
12:53 am 00:53 Clear 70 21.1 53 11.7 55 55 ESE 8 13 29.90 1013 10 16 N/A
1:53 am 01:53 Clear 71 21.7 51 10.6 49 49 E 10 17 29.91 1013 10 16 N/A
2:53 am 02:53 Clear 69 20.6 50 10 51 51 NE 9 15 29.92 1013 10 16 N/A
3:53 am 03:53 Clear 68 20 49 9.4 51 51 E 12 19 29.92 1013 10 16 N/A
4:53 am 04:53 Clear 63 17.2 51 10.6 65 65 E 8 13 29.96 1014 10 16 N/A
5:53 am 05:53 Sunny 62 16.7 51 10.6 67 67 ESE 13 20 29.99 1016 10 16 N/A
6:53 am 06:53 Sunny 64 17.8 52 11.1 65 65 SE 16 26 30.01 1016 10 16 N/A
7:53 am 07:53 Sunny 67 19.4 53 11.7 61 61 ESE 20 31 30.03 1017 10 16 N/A
8:53 am 08:53 Sunny 73 22.8 55 12.8 53 53 SE 14 22 30.01 1016 10 16 N/A
9:53 am 09:53 Sunny 78 25.6 56 13.3 47 47 SE 12 19 30.01 1016 10 16 N/A
10:53 am 10:53 Sunny 83 28.3 55 12.8 38 38 SE 10 17 29.99 1016 10 16 N/A
11:53 am 11:53 Sunny 87 30.6 54 12.2 32 32 S 9 15 29.98 1015 10 16 N/A
12:53 pm 12:53 Sunny 91 32.8 55 12.8 30 30 SSE 9 15 29.95 1014 10 16 N/A
1:53 pm 13:53 Sunny 94 34.4 54 12.2 26 26 SSE 9 15 29.92 1013 10 16 N/A
2:53 pm 14:53 Sunny 97 36.1 54 12.2 24 24 S 14 22 29.90 1013 10 16 N/A
3:53 pm 15:53 Sunny 96 35.6 52 11.1 23 23 SE 13 20 29.89 1012 10 16 N/A
4:53 pm 16:53 Sunny 97 36.1 52 11.1 22 22 ESE 15 24 29.87 1012 10 16 N/A
5:53 pm 17:53 Sunny 95 35 51 10.6 23 23 SE 13 20 29.86 1011 10 16 N/A
6:53 pm 18:53 Sunny 87 30.6 55 12.8 34 34 undefined N/A 29.88 1012 10 16 N/A
7:22 pm 19:22 Mostly Cloudy with Thunderstorms 86 30 56 13.3 36 36 ENE 12 19 29.72 1006 10 16 N/A
7:53 pm 19:53 Cloudy with Thunderstorms 83 28.3 61 16.1 48 48 NE 8 13 29.92 1013 10 16 0.00 0.00
8:23 pm 20:23 Cloudy with Strong Thunderstorms 71 21.7 62 16.7 73 73 W 26 43 29.92 1013 2 3 0.05 1.27
8:42 pm 20:42 Cloudy with Thunderstorms 78 25.6 61 16.1 56 56 S 14 22 29.88 1012 3 5 0.25 6.35
8:53 pm 20:53 Windy with Storms Likely 76 24.4 62 16.7 62 62 ESE 29 46 29.99 1016 10 16 0.27 6.86
9:16 pm 21:16 Cloudy with Light Rain 72 22 55 13 57 57 E 26 43 29.88 1012 10 16 N/A
9:26 pm 21:26 Mostly Cloudy with Nearby Thunderstorms 73 23 54 12 50 50 ESE 23 37 29.87 1012 10 16 N/A
9:41 pm 21:41 Mostly Clear 74 23.3 53 11.7 48 48 ESE 22 35 29.88 1012 10 16 0.00 0.00
9:53 pm 21:53 Clear 77 25 51 10.6 40 40 ESE 22 35 29.95 1014 10 16 0.00 0.00
10:19 pm 22:19 Clear 72 22.2 56 13.3 57 57 S 18 30 29.91 1013 10 16 N/A
10:53 pm 22:53 Clear 72 22.2 54 12.2 53 53 S 6 9 29.96 1015 10 16 N/A
11:53 pm 23:53 Clear 65 18.3 57 13.9 76 76 SE 7 11 29.96 1015 10 16 N/A

Powered by AerisWeather